Haines, AK

3:46 PM AKST on December 16, 2017 (GMT -0900)
Haines

Weather History for PAHN - May, 2013

Change the Weather History Date:

Friday, May 31, 2013

  Actual Average Record
Temperature  
Mean Temperature 50 °F -  
Max Temperature 54 °F 58 °F 75 °F (1982)
Min Temperature 46 °F 44 °F 32 °F (1975)
Degree Days  
Heating Degree Days 14    
Moisture  
Dew Point 47 °F    
Average Humidity 91    
Maximum Humidity 96    
Minimum Humidity 77    
Precipitation  
Precipitation 0.72 in - - ()
Sea Level Pressure  
Sea Level Pressure 30.13 in    
Wind  
Wind Speed 7 mph (East)    
Max Wind Speed 10 mph    
Max Gust Speed 20 mph    
Visibility 8 miles    
Events Rain    
Averages and records for this station are not official NWS values.
T = Trace of Precipitation, MM = Missing Value Source: NWS Daily Summary

Daily Weather History Graph

Daily Weather History Graph

Search for Another Location

Airport or City:

Trip Planner

Search our weather history database for the weather conditions in past years. The results will help you decide how hot, cold, wet, or windy it might be!

Date:

Astronomy

May. 31, 2013 Rise Set
Actual Time 3:59 AM AKDT 10:01 PM AKDT
Civil Twilight 2:44 AM AKDT 11:17 PM AKDT
Nautical Twilight Sun does not rise Sun does not rise
Astronomical Twilight Sun does not rise Sun does not rise
Moon 1:21 AM AKDT (5/31) 12:48 PM AKDT (5/31)
Length of Visible Light 20h 33m
Length of Day
18h 02m
Waning Gibbous, 50% of the Moon is Illuminated
May 31
Waning Gibbous
Jun 8
New
Jun 16
First Quarter
Jun 23
Full
Jun 29
Last Quarter

Hourly Weather History & Observations

Time (AKDT) Temp. Windchill Dew Point Humidity Pressure Visibility Wind Dir Wind Speed Gust Speed Precip Events Conditions
12:54 AM 55.0 °F - 48.0 °F 77% 30.03 in 10.0 mi East 5.8 mph - N/A   Overcast
1:54 AM 52.0 °F - 48.0 °F 86% 30.04 in 10.0 mi East 5.8 mph - 0.00 in   Overcast
2:54 AM 50.0 °F - 46.9 °F 89% 30.05 in 10.0 mi East 8.1 mph - 0.00 in Rain Light Rain
3:22 AM 51.8 °F - 48.2 °F 88% 30.05 in 10.0 mi East 6.9 mph - 0.00 in Rain Light Rain
3:42 AM 51.8 °F - 48.2 °F 88% 30.05 in 10.0 mi East 5.8 mph - 0.01 in Rain Light Rain
3:52 AM 51.8 °F - 50.0 °F 94% 30.06 in 10.0 mi East 4.6 mph - 0.01 in Rain Light Rain
3:54 AM 52.0 °F - 50.0 °F 93% 30.07 in 10.0 mi ESE 4.6 mph - 0.01 in   Overcast
4:09 AM 51.8 °F - 48.2 °F 88% 30.07 in 10.0 mi East 4.6 mph - 0.01 in Rain Light Rain
4:54 AM 52.0 °F - 48.9 °F 89% 30.07 in 10.0 mi East 4.6 mph - 0.04 in Rain Light Rain
5:54 AM 52.0 °F - 48.9 °F 89% 30.08 in 10.0 mi East 8.1 mph - 0.00 in Rain Light Rain
6:54 AM 50.0 °F - 48.9 °F 96% 30.10 in 10.0 mi East 4.6 mph - 0.00 in Rain Light Rain
7:54 AM 50.0 °F - 48.0 °F 93% 30.11 in 4.0 mi East 8.1 mph - 0.00 in Rain Light Rain
8:54 AM 50.0 °F - 48.9 °F 96% 30.13 in 5.0 mi ESE 6.9 mph - 0.01 in Rain Light Rain
9:54 AM 51.1 °F - 48.0 °F 89% 30.13 in 10.0 mi SE 5.8 mph - 0.00 in   Overcast
10:54 AM 51.1 °F - 46.9 °F 86% 30.14 in 10.0 mi ENE 9.2 mph - 0.00 in Rain Light Rain
11:54 AM 51.1 °F - 48.0 °F 89% 30.15 in 10.0 mi East 4.6 mph - 0.02 in Rain Light Rain
12:54 PM 50.0 °F - 48.0 °F 93% 30.16 in 8.0 mi ESE 6.9 mph - 0.02 in Rain Light Rain
1:09 PM 50.0 °F - 48.2 °F 94% 30.15 in 7.0 mi Variable 5.8 mph - 0.02 in Rain Light Rain
1:54 PM 51.1 °F - 48.9 °F 92% 30.16 in 10.0 mi ESE 4.6 mph - 0.04 in Rain Light Rain
2:52 PM 50.0 °F - 48.2 °F 94% 30.15 in 8.0 mi Variable 5.8 mph - 0.05 in Rain Light Rain
2:54 PM 50.0 °F - 48.9 °F 96% 30.17 in 8.0 mi Variable 5.8 mph - 0.05 in Rain Light Rain
3:54 PM 50.0 °F - 48.0 °F 93% 30.17 in 5.0 mi East 8.1 mph - 0.05 in Rain Rain
4:54 PM 48.9 °F - 46.9 °F 93% 30.18 in 6.0 mi East 10.4 mph - 0.08 in Rain Light Rain
5:54 PM 48.9 °F - 46.9 °F 93% 30.18 in 5.0 mi East 8.1 mph 19.6 mph 0.08 in Rain Rain
6:54 PM 48.9 °F - 46.0 °F 90% 30.18 in 6.0 mi East 9.2 mph 17.3 mph 0.06 in Rain Light Rain
7:54 PM 48.0 °F - 46.0 °F 93% 30.18 in 7.0 mi East 10.4 mph 18.4 mph 0.07 in Rain Light Rain
8:42 PM 48.2 °F - 44.6 °F 87% 30.18 in 6.0 mi East 10.4 mph - 0.05 in Rain Light Rain
8:54 PM 48.0 °F - 45.0 °F 89% 30.19 in 7.0 mi East 8.1 mph - 0.07 in Rain Light Rain
9:54 PM 46.9 °F - 44.1 °F 90% 30.19 in 7.0 mi East 9.2 mph 17.3 mph 0.07 in Rain Rain
10:54 PM 46.9 °F - 44.1 °F 90% 30.20 in 10.0 mi East 6.9 mph 18.4 mph 0.04 in Rain Light Rain
11:54 PM 46.0 °F 41.9 °F 43.0 °F 89% 30.21 in 10.0 mi ENE 8.1 mph 17.3 mph 0.01 in Rain Light Rain